Stations météo

réclame
Mon MeteoGroup
Ajaccio, France (7761): Température de l'air & dewpoint: 12.01.2020 02:00:00 - 18.01.2020 02:00:00 (CET)Ajaccio, France (7761): Température de l'air 5cm: 12.01.2020 02:00:00 - 18.01.2020 02:00:00 (CET)Ajaccio, France (7761): Température de l'air -20cm & Température de l'air -100cm: 12.01.2020 02:00:00 - 18.01.2020 02:00:00 (CET)Ajaccio, France (7761): Vitesse du vent & gusts: 12.01.2020 02:00:00 - 18.01.2020 02:00:00 (CET)Ajaccio, France (7761): Direction du vent: 12.01.2020 02:00:00 - 18.01.2020 02:00:00 (CET)Ajaccio, France (7761): reduced air pressure: 12.01.2020 02:00:00 - 18.01.2020 02:00:00 (CET)Ajaccio, France (7761): visibility: 12.01.2020 02:00:00 - 18.01.2020 02:00:00 (CET)Ajaccio, France (7761): Ensoleillement: 12.01.2020 02:00:00 - 18.01.2020 02:00:00 (CET)Ajaccio, France (7761): Quantités de précipitations: 12.01.2020 02:00:00 - 18.01.2020 02:00:00 (CET)
Date & Time tt [°C] td [°C] tt 5cm [°C] tt -20cm [°C] tt -100cm [°C] ff [km/h] ff [knt] fx [km/h] fx [knt] dd ppp [hPa] vv [km] sd [min] rr [mm]
18.01.2020 02:00:00 11,9 7,8 9,6 10,8 12,5 22 12 35 19 W 1024,6 13 0 0,0
18.01.2020 01:00:00 11,7 8,5 9,6 10,8 12,5 15 8 28 15 W 1025,0 6 0 0,4
18.01.2020 00:00:00 11,9 8,9 10,1 10,8 12,5 13 7 29 16 W 1025,2 13 0 0,0
17.01.2020 23:00:00 11,9 9,1 10,6 10,7 12,5 7 4 46 25 W 1025,1 20 0 1,2
17.01.2020 22:00:00 14,0 12,0 11,4 10,7 12,5 23 12 35 19 SSW 1024,8 13 0 0,0
17.01.2020 21:00:00 12,4 10,1 10,3 10,6 12,5 23 12 39 21 SSW 1025,3 3,5 0 0,6
17.01.2020 20:00:00 11,7 9,6 10,3 10,6 12,5 9 5 17 9 ENE 1025,6 16 0 1,6
17.01.2020 19:00:00 12,8 9,6 10,8 10,5 12,5 6 4 16 8 E 1026,1 4,8 0 0,4
17.01.2020 18:00:00 13,0 9,3 11,8 10,4 12,5 4 2 11 6 E 1026,3 17 0 0,0
17.01.2020 17:00:00 13,7 9,5 12,1 10,4 12,5 7 4 13 7 S 1026,5 32 18 0,0
17.01.2020 16:00:00 15,3 9,2 15,3 10,3 12,5 7 4 11 6 SW 1026,7 42 57 0,0
17.01.2020 15:00:00 16,0 9,4 17,7 10,2 12,5 8 4 18 10 S 1026,8 44 60 0,0
17.01.2020 14:00:00 15,3 8,5 18,0 10,2 12,5 6 4 15 8 SW 1027,0 39 57 0,0
17.01.2020 13:00:00 13,8 8,8 15,4 10,2 12,6 6 4 13 7 NE 1027,7 29 4 0,0
17.01.2020 12:00:00 12,7 8,2 10,7 10,2 12,6 8 5 16 8 NE 1028,2 21 11 0,0
17.01.2020 11:00:00 10,8 8,6 9,1 10,2 12,6 7 4 13 7 NE 1029,0 11 0 0,0
17.01.2020 10:00:00 10,1 8,0 9,0 10,2 12,5 9 5 16 9 ENE 1029,1 4,9 0 0,2
17.01.2020 09:00:00 9,9 7,3 9,1 10,2 12,6 6 4 14 8 NE 1028,7 20 0 0,0
17.01.2020 08:00:00 9,6 7,2 9,0 10,2 12,6 9 5 15 8 NE 1028,5 33 0 0,0
17.01.2020 07:00:00 9,4 7,2 8,5 10,2 12,6 9 5 13 7 NE 1028,3 31 0 0,0
17.01.2020 06:00:00 9,1 7,0 8,3 10,2 12,5 9 5 11 6 NE 1028,3 27 0 0,0
17.01.2020 05:00:00 8,8 7,1 8,2 10,2 12,5 8 4 10 5 ENE 1028,3 28 0 0,0
17.01.2020 04:00:00 9,0 6,8 8,1 10,2 12,6 6 4 10 5 NE 1028,7 20 0 0,0
17.01.2020 03:00:00 8,9 6,9 8,2 10,2 12,6 6 3 10 5 NE 1029,0 19 0 0,0
17.01.2020 02:00:00 9,2 6,8 8,4 10,2 12,6 8 4 14 7 NE 1029,0 23 0 0,0
17.01.2020 01:00:00 9,4 7,0 8,0 10,2 12,6 10 5 13 7 NE 1029,2 20 0 0,0
17.01.2020 00:00:00 9,8 7,0 8,2 10,1 12,6 8 4 13 7 NNE 1029,6 21 0 0,0
16.01.2020 23:00:00 10,5 7,4 9,5 10,1 12,6 6 4 14 7 NNE 1030,0 19 0 0,0
16.01.2020 22:00:00 10,6 7,5 9,7 10,1 12,6 9 5 15 8 NE 1030,0 16 0 0,0
16.01.2020 21:00:00 10,7 7,6 9,8 10,1 12,6 9 5 15 8 NE 1030,2 16 0 0,0
16.01.2020 20:00:00 10,5 7,9 9,8 10,0 12,6 9 5 17 9 NNE 1030,2 16 0 0,0
16.01.2020 19:00:00 11,2 8,2 10,4 10,0 12,6 9 5 15 8 NE 1030,4 11 0 0,0
16.01.2020 18:00:00 11,6 8,3 10,7 9,9 12,6 8 4 9 5 NE 1030,2 9 0 0,0
16.01.2020 17:00:00 12,2 8,1 11,3 9,9 12,6 6 4 9 5 NE 1030,0 6 0 0,0
16.01.2020 16:00:00 12,7 7,8 12,3 9,9 12,6 6 3 8 5 NE 1030,0 20 0 0,0
16.01.2020 15:00:00 12,8 7,5 13,3 9,9 12,6 3 1 11 6 N 1030,1 35 0 0,0
16.01.2020 14:00:00 12,9 8,0 13,4 9,8 12,6 4 2 8 4 WNW 1030,4 31 0 0,0
16.01.2020 13:00:00 12,2 7,7 12,0 9,9 12,6 5 3 9 5 NNE 1030,9 12 0 0,0
16.01.2020 12:00:00 11,3 6,8 10,8 9,9 12,6 5 3 9 5 NE 1031,3 15 0 0,0
16.01.2020 11:00:00 10,5 6,6 9,7 9,9 12,6 6 4 16 8 NNE 1031,5 19 0 0,0
16.01.2020 10:00:00 9,7 5,7 8,8 9,9 12,6 7 4 11 6 NE 1031,3 32 0 0,0
16.01.2020 09:00:00 9,2 5,0 8,4 9,9 12,6 6 4 14 8 NE 1030,9 14 0 0,0
16.01.2020 08:00:00 8,9 4,5 8,2 9,9 12,6 9 5 18 10 NE 1030,5 52 0 0,0
16.01.2020 07:00:00 8,7 4,3 7,8 10,0 12,6 10 6 20 11 NNE 1030,1 60 0 0,0
16.01.2020 06:00:00 8,4 4,2 7,4 10,0 12,6 11 6 19 11 NE 1029,8 59 0 0,0
16.01.2020 05:00:00 8,0 3,8 7,1 10,0 12,6 14 7 19 10 NNE 1029,7 58 0 0,0
16.01.2020 04:00:00 7,6 3,6 6,0 10,0 12,6 13 7 21 11 NE 1029,8 57 0 0,0
16.01.2020 03:00:00 6,8 3,8 6,0 10,1 12,6 10 5 15 8 NE 1029,9 50 0 0,0
16.01.2020 02:00:00 8,1 3,2 5,3 10,1 12,6 8 4 18 10 NE 1029,8 57 0 0,0
16.01.2020 01:00:00 7,1 3,9 5,7 10,1 12,6 13 7 26 14 NNE 1029,9 50 0 0,0
16.01.2020 00:00:00 7,5 4,1 6,1 10,1 12,6 11 6 22 12 NNE 1030,3 42 0 0,0
15.01.2020 23:00:00 6,8 4,3 5,7 10,2 12,6 13 7 21 12 NNE 1030,2 34 0 0,0
15.01.2020 22:00:00 6,7 4,4 5,6 10,1 12,6 8 5 19 11 NNE 1030,0 25 0 0,0
15.01.2020 21:00:00 6,7 4,4 5,7 10,1 12,6 12 6 18 10 NE 1029,9 19 0 0,0
15.01.2020 20:00:00 8,2 5,1 6,6 10,1 12,6 11 6 17 9 NE 1029,9 22 0 0,0
15.01.2020 19:00:00 10,3 6,1 7,8 10,0 12,6 9 5 14 8 NE 1029,7 22 0 0,0
15.01.2020 18:00:00 11,7 6,6 9,1 10,0 12,7 6 4 15 8 ENE 1029,4 18 0 0,0
15.01.2020 17:00:00 13,5 6,6 12,1 9,8 12,6 10 5 23 13 SSW 1028,7 55 58 0,0
15.01.2020 16:00:00 14,5 7,5 13,8 9,8 12,7 19 10 27 15 SW 1028,5 60 60 0,0
15.01.2020 15:00:00 15,1 8,3 17,5 9,7 12,7 21 12 30 16 SW 1028,1 20 60 0,0
15.01.2020 14:00:00 15,0 8,0 19,7 9,6 12,6 13 7 19 10 SW 1028,2 59 60 0,0
15.01.2020 13:00:00 14,3 6,1 20,0 9,6 12,6 9 5 16 9 W 1028,6 60 60 0,0
15.01.2020 12:00:00 14,0 4,3 19,3 9,7 12,6 6 3 9 5 W 1029,1 46 60 0,0
15.01.2020 11:00:00 11,9 4,8 13,5 9,7 12,7 5 3 13 7 NE 1029,5 20 60 0,0
15.01.2020 10:00:00 7,9 3,2 7,9 9,8 12,7 9 5 20 11 NE 1029,2 50 60 0,0
15.01.2020 09:00:00 5,1 1,8 2,4 9,9 12,7 13 7 24 13 NE 1028,8 48 39 0,0
15.01.2020 08:00:00 3,3 1,2 1,9 9,9 12,7 14 8 22 12 NE 1028,4 55 0 0,0
15.01.2020 07:00:00 4,1 1,5 1,9 10,0 12,7 13 7 20 11 NE 1028,4 59 0 0,0
15.01.2020 06:00:00 4,0 2,0 2,0 10,0 12,7 11 6 19 10 NE 1028,1 58 0 0,0
15.01.2020 05:00:00 4,3 1,7 2,7 10,1 12,7 11 6 20 11 NE 1027,9 58 0 0,0
15.01.2020 04:00:00 4,5 1,5 3,1 10,2 12,7 13 7 22 12 NNE 1027,9 59 0 0,0
15.01.2020 03:00:00 5,0 2,4 3,6 10,2 12,7 15 8 25 13 NNE 1028,3 56 0 0,0
15.01.2020 02:00:00 5,0 2,7 3,4 10,3 12,7 12 7 22 12 NNE 1028,3 51 0 0,0
15.01.2020 01:00:00 5,0 2,7 3,9 10,3 12,7 12 7 19 11 NE 1028,5 43 0 0,0
15.01.2020 00:00:00 5,9 3,2 4,3 10,3 12,7 12 6 21 11 NE 1028,5 40 0 0,0
14.01.2020 23:00:00 6,0 3,7 4,6 10,3 12,7 13 7 19 10 NNE 1028,3 35 0 0,0
14.01.2020 22:00:00 6,5 4,0 5,2 10,3 12,7 9 5 23 12 NE 1028,1 29 0 0,0
14.01.2020 21:00:00 7,0 4,5 5,5 10,3 12,7 10 6 17 9 NE 1027,9 27 0 0,0
14.01.2020 20:00:00 7,8 4,9 6,4 10,2 12,7 11 6 18 10 NNE 1028,0 24 0 0,0
14.01.2020 19:00:00 8,9 6,0 7,2 10,2 12,7 12 6 20 11 NE 1027,7 18 0 0,0
14.01.2020 18:00:00 10,9 7,0 7,6 10,1 12,7 6 4 13 7 E 1027,1 26 4 0,0
14.01.2020 17:00:00 13,2 7,8 10,9 10,0 12,7 10 5 19 11 SW 1026,6 60 60 0,0
14.01.2020 16:00:00 14,9 8,6 14,1 9,8 12,7 15 8 21 12 SW 1026,2 60 60 0,0
14.01.2020 15:00:00 15,6 8,6 19,7 9,8 12,7 13 7 21 11 SW 1026,0 60 57 0,0
14.01.2020 14:00:00 15,3 7,8 20,9 9,7 12,7 12 7 19 11 SW 1025,9 60 60 0,0
14.01.2020 13:00:00 14,6 6,2 19,8 9,7 12,7 8 5 13 7 W 1026,3 20 60 0,0
14.01.2020 12:00:00 13,9 3,9 16,5 9,7 12,7 6 3 12 7 W 1026,6 20 57 0,0
14.01.2020 11:00:00 13,0 4,2 12,8 9,8 12,7 3 2 13 7 E 1027,2 52 56 0,0
14.01.2020 10:00:00 9,4 3,8 8,3 9,8 12,7 9 5 19 10 NNE 1027,1 58 58 0,0
14.01.2020 09:00:00 5,6 2,4 3,1 9,9 12,7 13 7 23 13 NNE 1026,7 47 38 0,0
14.01.2020 08:00:00 4,1 1,5 3,0 9,9 12,7 15 8 25 14 NE 1026,5 42 0 0,0
14.01.2020 07:00:00 4,2 1,7 3,0 10,0 12,7 16 8 26 14 NE 1026,0 50 0 0,0
14.01.2020 06:00:00 4,9 2,1 3,5 10,0 12,7 13 7 19 10 NE 1025,7 47 0 0,0
14.01.2020 05:00:00 5,6 2,6 4,5 10,1 12,7 14 8 20 11 NNE 1025,3 48 0 0,0
14.01.2020 04:00:00 5,2 2,5 4,1 10,1 12,8 11 6 19 11 NE 1025,4 44 0 0,0
14.01.2020 03:00:00 5,0 2,9 3,8 10,1 12,7 12 6 20 11 NNE 1025,8 34 0 0,0
14.01.2020 02:00:00 5,3 3,0 4,1 10,2 12,7 12 7 23 13 NNE 1025,7 31 0 0,0
14.01.2020 01:00:00 6,4 4,1 4,7 10,2 12,7 13 7 23 12 NNE 1025,4 31 0 0,0
14.01.2020 00:00:00 6,8 4,1 5,5 10,2 12,7 11 6 17 9 NE 1025,4 19 0 0,0
13.01.2020 23:00:00 7,5 4,4 6,4 10,3 12,8 8 5 16 8 NE 1025,6 25 0 0,0
13.01.2020 22:00:00 7,9 4,8 6,2 10,3 12,8 8 5 19 10 NNE 1025,5 28 0 0,0
13.01.2020 21:00:00 7,1 4,2 5,9 10,2 12,8 11 6 18 10 NE 1025,6 18 0 0,0
13.01.2020 20:00:00 7,8 4,7 6,3 10,2 12,8 12 6 18 10 NNE 1025,4 19 0 0,0
13.01.2020 19:00:00 8,7 5,8 6,9 10,1 12,8 11 6 17 9 NE 1025,3 16 0 0,0
13.01.2020 18:00:00 10,4 6,2 6,6 10,0 12,8 4 2 13 7 ENE 1024,9 39 0 0,0
13.01.2020 17:00:00 12,6 6,8 10,7 10,0 12,8 9 5 17 9 SW 1024,7 59 57 0,0
13.01.2020 16:00:00 14,2 7,0 13,2 9,9 12,8 10 5 19 10 SW 1024,6 44 60 0,0
13.01.2020 15:00:00 14,2 5,8 14,5 9,8 12,7 11 6 24 13 WSW 1024,6 42 55 0,0
13.01.2020 14:00:00 14,3 6,1 17,8 9,8 12,7 13 7 17 9 WSW 1024,9 60 58 0,0
13.01.2020 13:00:00 14,1 5,7 20,9 9,8 12,7 6 3 10 6 W 1025,7 46 60 0,0
13.01.2020 12:00:00 14,5 6,8 16,1 9,8 12,8 5 3 14 8 WSW 1026,6 60 60 0,0
13.01.2020 11:00:00 11,3 3,6 13,0 9,9 12,8 9 5 17 9 NE 1026,8 18 60 0,0
13.01.2020 10:00:00 7,5 3,0 7,0 10,0 12,8 12 6 20 11 NNE 1026,7 28 60 0,0
13.01.2020 09:00:00 4,8 0,9 2,0 10,0 12,8 14 7 23 13 NE 1026,5 46 37 0,0
13.01.2020 08:00:00 3,1 0,5 1,5 10,1 12,8 16 9 23 12 NNE 1026,4 56 0 0,0
13.01.2020 07:00:00 4,0 0,9 1,8 10,2 12,8 15 8 23 12 NNE 1026,2 60 0 0,0
13.01.2020 06:00:00 3,3 0,9 1,8 10,3 12,8 15 8 22 12 NE 1025,9 56 0 0,0
13.01.2020 05:00:00 3,0 0,9 1,7 10,3 12,8 15 8 21 12 NE 1025,7 57 0 0,0
13.01.2020 04:00:00 4,0 1,4 2,7 10,4 12,8 13 7 23 12 NNE 1026,0 49 0 0,0
13.01.2020 03:00:00 4,6 1,8 2,9 10,4 12,8 16 8 22 12 NNE 1026,3 46 0 0,0
13.01.2020 02:00:00 4,5 2,2 3,4 10,5 12,8 14 8 24 13 NE 1026,4 33 0 0,0
13.01.2020 01:00:00 4,8 2,7 3,5 10,5 12,8 14 8 22 12 NNE 1026,5 29 0 0,0
13.01.2020 00:00:00 5,1 2,9 4,0 10,5 12,8 15 8 23 12 NNE 1026,9 27 0 0,0
12.01.2020 23:00:00 5,8 3,6 4,4 10,6 12,8 12 7 20 11 NNE 1027,1 20 0 0,0
12.01.2020 22:00:00 5,8 4,3 4,3 10,6 12,8 13 7 19 11 NE 1027,0 19 0 0,0
12.01.2020 21:00:00 6,8 5,1 5,2 10,5 12,8 11 6 18 10 NE 1027,0 16 0 0,0
12.01.2020 20:00:00 8,0 6,0 6,2 10,5 12,8 11 6 21 11 NNE 1026,8 17 0 0,0
12.01.2020 19:00:00 8,9 6,7 7,3 10,4 12,8 10 6 18 10 NE 1026,6 17 0 0,0
12.01.2020 18:00:00 10,5 7,7 7,2 10,4 12,8 4 2 10 5 E 1026,2 33 0 0,0
12.01.2020 17:00:00 13,2 9,4 11,2 10,3 12,8 7 4 17 9 SSW 1026,2 50 60 0,0
12.01.2020 16:00:00 14,6 9,8 13,7 10,2 12,8 12 6 19 11 SW 1026,2 45 60 0,0
12.01.2020 15:00:00 15,2 10,0 17,7 10,1 12,8 11 6 21 12 SSW 1026,1 49 60 0,0
12.01.2020 14:00:00 15,1 8,8 20,2 10,0 12,8 13 7 18 10 SW 1026,3 20 60 0,0
12.01.2020 13:00:00 15,3 8,1 21,4 10,0 12,7 11 6 17 9 SW 1026,8 60 60 0,0
12.01.2020 12:00:00 14,8 6,4 20,2 10,1 12,8 4 2 11 6 S 1027,6 59 60 0,0
12.01.2020 11:00:00 12,6 7,9 13,2 10,1 12,8 5 3 16 9 NNE 1028,2 43 60 0,0
12.01.2020 10:00:00 8,4 5,7 7,7 10,2 12,8 11 6 19 11 NE 1027,8 38 60 0,0
12.01.2020 09:00:00 5,4 3,7 2,9 10,3 12,8 11 6 20 11 NNE 1027,5 39 34 0,0
12.01.2020 08:00:00 3,9 2,4 3,0 10,3 12,8 15 8 22 12 NE 1027,2 43 0 0,0
12.01.2020 07:00:00 4,1 2,6 3,2 10,4 12,8 13 7 22 12 NE 1026,8 42 0 0,0
12.01.2020 06:00:00 4,4 3,1 3,0 10,5 12,8 14 8 21 11 NNE 1026,3 51 0 0,0
12.01.2020 05:00:00 4,9 3,2 3,3 10,5 12,8 11 6 21 12 NE 1026,0 45 0 0,0
12.01.2020 04:00:00 5,2 3,2 3,6 10,6 12,8 14 8 23 12 NNE 1026,0 38 0 0,0
12.01.2020 03:00:00 5,0 3,3 3,8 10,6 12,8 11 6 18 10 NE 1026,1 34 0 0,0
12.01.2020 02:00:00 5,4 3,7 4,2 10,7 12,8 11 6 21 11 NE 1025,9 31 0 0,0

tt = Température de l'air
td = dewpoint
tt 5cm = Température de l'air 5cm
tt -20cm = Température de l'air -20cm
tt -100cm = Température de l'air -100cm
ff = Vitesse du vent
fx = gusts
dd = Direction du vent
ppp = reduced air pressure
vv = visibility
sd = Ensoleillement
rr = Quantités de précipitations

stations d'obs. à proximité